Weather in Flekkefjord

Norway     58°17′45″N   6°39′56″E
temp.,
°C
wind,
m/s
gust,
m/s
humid.,
%
clouds,
%
prec.,
mm/h
press.,
hPa
HPBL,
m
14 may, fri
fri1423:00+11n2275100 0.0 100516
02:00+12nne2384100 0.4 100459
05:00+12e1195100 2.6 100312
08:00+12nne1296100 5.3 100379
11:00+14e2483100 0.1 1004686
14:00+15sse2481100 0.3 1004641
17:00+13sw229087 0.2 1003318
20:00+12wsw119496 0.4 1002212
15 may, sat
sat1523:00+10nnw0098100 0.1 100211
02:00+10n1197100 0.1 100110
05:00+11e3794100 0.4 1001543
08:00+10e61387100 0.4 1000721
11:00+11ese598096 0.1 1000803
14:00+12se577592 0.7 10001074
17:00+9s3692100 0.5 1000551
20:00+7sw1395100 0.9 1000352
16 may, sun
sun1623:00+7ssw1195100 0.3 1000158
02:00+7ssw2397100 1.3 1001271
05:00+5sse019597 0.1 100136
08:00+8sse118184 0.1 1001354
11:00+9ssw2266100 0.1 10011033
14:00+12sw225229 0.1 10011149
17:00+12sw32553 0.0 1001912
20:00+10sw226537 0.0 1000327
17 may, mon
mon1723:00+6wnw1183100 0.0 100019
02:00+7n1180100 0.0 99811
05:00+7e1190100 0.5 99835
08:00+7nnw1394100 2.5 998278
11:00+7wnw1295100 3.1 998196
14:00+8w0192100 5.3 998253
17:00+8wsw1292100 1.1 999176
20:00+8wnw1295100 1.9 100096
18 may, tue
tue1823:00+7w1296100 0.1 100192
02:00+5w2496100 0.1 1002121
05:00+5wnw399498 0.0 1002441
08:00+7wnw488767 0.0 1003676
11:00+10w577192 0.1 10031140
14:00+11w5861100 0.1 10041299
17:00+11w5865100 0.1 10051215
20:00+9w487592 0.2 1005758